EHI
0 0 0 0 0 0 0 0 0 0 0 0 1 3 7 9 10 10 9 8 6 7 9 11 15 18 19 21 23 23 22 21 21 20 19 19 18 15 13 14 14 12 10 9
0 0 0 0 0 0 0 0 0 0 0 1 3 6 9 11 13 12 10 7 6 7 8 9 12 15 18 20 21 21 21 21 19 18 17 17 16 14 13 14 15 14 12 12
0 0 0 0 0 0 0 0 0 0 1 3 6 8 10 12 14 13 11 8 7 8 9 8 8 10 14 16 17 18 20 20 17 14 14 14 13 12 13 15 16 15 14 14
0 0 0 0 0 0 0 0 0 0 1 3 5 7 8 10 11 11 9 7 6 8 9 8 7 7 9 12 13 15 17 17 15 12 10 10 10 9 10 13 14 14 14 14
0 0 0 0 0 0 0 0 1 1 2 1 2 5 6 7 7 6 6 5 5 6 7 6 5 6 7 9 10 11 12 12 12 11 10 9 9 9 9 11 11 10 11 13
0 0 0 0 0 0 0 0 1 2 2 1 1 3 4 4 4 5 5 5 5 5 6 5 4 5 7 8 8 8 8 8 9 9 9 9 11 12 12 10 8 7 10 12
0 0 0 0 0 0 0 0 0 1 1 0 0 1 2 2 4 5 6 6 4 4 5 5 3 4 6 7 6 7 7 8 8 7 6 8 11 12 12 11 9 8 11 13
0 0 0 0 0 0 0 0 0 0 0 0 0 1 1 2 5 6 6 6 5 4 5 4 3 3 5 6 7 8 8 9 7 5 5 8 9 9 10 10 10 10 12 13
0 0 0 0 0 0 0 0 0 0 0 0 0 1 2 4 5 6 6 6 6 6 5 5 5 5 6 7 8 9 9 9 7 6 6 7 7 8 8 8 9 10 11 12
0 0 0 0 0 0 0 0 0 0 1 1 1 1 2 4 4 4 5 5 6 6 5 5 6 7 7 7 8 9 9 8 8 7 7 7 8 8 8 7 8 9 10 9
0 0 0 0 0 0 0 0 0 0 1 1 1 0 1 2 2 1 2 3 4 4 4 4 5 6 6 6 8 9 9 9 9 8 7 7 7 7 6 6 6 7 8 7
0 0 0 0 0 0 0 0 0 0 0 0 0 0 0 0 0 0 0 1 3 3 3 4 4 4 4 5 7 8 9 9 9 8 6 5 5 4 3 3 2 3 5 5
0 0 0 0 0 0 0 0 0 0 0 0 0 0 0 0 0 1 1 1 2 3 4 4 3 3 4 5 6 7 9 9 7 6 4 4 3 2 2 1 0 0 1 2
0 0 0 0 0 0 0 0 0 0 0 0 0 0 0 0 0 1 1 1 1 3 4 4 2 1 2 3 4 5 7 6 5 4 3 3 2 2 1 1 1 0 0 0
0 0 0 0 0 0 0 0 0 0 0 0 0 0 0 0 0 1 1 0 1 2 4 3 2 1 1 1 1 2 4 3 2 2 2 1 1 1 1 2 1 0 0 0
0 0 0 0 0 0 0 0 0 0 0 0 0 0 0 0 0 0 0 1 1 2 3 3 2 2 1 0 0 1 1 1 0 1 1 0 0 0 1 1 1 0 0 0
0 0 0 0 0 0 0 0 0 0 0 0 0 0 0 0 0 0 0 1 1 1 1 1 1 1 1 0 0 0 0 0 0 0 0 0 0 0 0 0 0 0 0 0
0 0 0 0 0 0 0 0 0 0 0 0 0 0 0 0 0 0 0 1 1 0 0 0 0 0 0 0 0 0 0 0 0 0 0 0 0 0 0 0 0 0 0 0
0 0 0 0 0 0 0 0 0 0 0 0 0 0 0 0 0 0 0 0 0 0 0 0 0 0 0 0 0 0 0 0 0 0 0 0 0 0 0 0 0 0 0 0
0 0 0 0 0 0 0 0 0 0 0 0 0 0 0 0 0 0 0 0 0 0 0 0 0 0 0 0 0 0 0 0 0 0 0 0 0 0 0 0 0 0 0 0
0 0 0 0 0 0 0 0 0 0 0 0 0 0 0 0 0 0 0 0 0 0 0 0 0 0 0 0 0 0 0 0 0 0 0 0 0 0 0 0 0 0 0 0
0 0 0 0 0 0 0 0 0 0 0 0 0 0 0 0 0 0 0 0 0 0 0 0 0 0 0 0 0 0 0 0 0 0 0 0 0 0 0 0 0 0 0 0
0 0 0 0 0 0 0 0 0 0 0 0 0 0 0 0 0 0 0 0 0 0 0 0 0 0 0 0 0 0 0 0 0 0 0 0 0 0 0 0 0 0 0 0
0 0 0 0 0 0 0 0 0 0 0 0 0 0 0 0 0 0 0 0 0 0 0 0 0 0 0 0 0 0 0 0 0 0 0 0 0 0 0 0 0 0 0 0
0 0 0 0 0 0 0 0 0 0 0 0 0 0 0 0 0 0 0 0 0 0 0 0 0 0 0 0 0 0 0 0 0 0 0 0 0 0 0 0 0 0 0 0
0 0 0 0 0 0 0 0 0 0 0 0 0 0 0 0 0 0 0 0 0 0 0 0 0 0 0 0 0 0 0 0 0 0 0 0 0 0 0 0 0 0 0 0
0 0 0 0 0 0 0 0 0 0 0 0 0 0 0 0 0 0 0 0 0 0 0 0 0 0 0 0 0 0 0 0 0 0 0 0 0 0 0 0 0 0 0 0
Wind_Speed
3 2 2 2 2 3 4 6 7 6 6 8 6 5 4 2 0 2 1 1 2 1 1 1 1 1 2 3 3 5 6 7 8 7 6 5 5 5 5 5 6 5 4 4
1 1 1 1 2 3 3 3 4 3 5 5 3 0 0 1 2 2 1 1 1 1 0 1 1 1 1 2 2 3 5 5 4 4 5 5 6 5 5 5 5 5 5 5
2 2 2 2 3 3 2 1 3 4 5 2 2 1 2 2 2 2 2 1 1 1 2 2 2 2 2 2 2 2 3 3 3 4 4 5 6 5 5 6 6 5 5 5
2 2 4 7 2 1 2 1 1 2 3 3 2 2 1 1 1 2 2 2 2 2 2 2 1 1 1 0 1 2 2 3 3 4 4 4 5 6 6 5 5 5 5 5
4 3 4 5 1 1 2 2 2 2 2 2 1 2 2 1 1 3 4 3 3 3 2 1 1 1 1 0 0 1 2 3 3 4 4 4 5 5 5 5 5 4 4 5
4 4 6 6 3 2 2 2 2 1 1 2 3 1 4 3 2 2 2 1 1 1 0 1 1 2 2 1 1 3 4 3 3 3 4 5 5 4 3 4 4 4 4 4
4 3 6 5 5 1 3 5 3 1 2 1 2 4 5 4 3 2 2 1 1 1 1 2 1 2 2 2 3 4 3 2 2 3 4 4 3 2 2 2 3 3 3 3
4 3 7 3 2 2 5 3 1 2 2 2 3 4 3 3 3 2 3 2 1 0 2 2 1 2 2 4 4 2 1 2 2 2 3 2 2 2 2 2 2 2 2 2
6 7 5 2 2 3 2 1 1 1 2 2 2 3 3 3 3 3 3 3 2 1 2 2 2 3 4 4 2 2 1 2 2 1 2 2 3 2 2 2 2 2 3 3
2 4 4 3 3 2 1 2 2 2 2 1 2 3 3 3 3 4 4 4 3 2 3 3 3 3 4 3 2 2 2 2 2 2 2 1 1 2 2 3 3 3 4 3
3 5 4 4 3 3 2 2 2 2 2 2 2 3 3 3 4 4 4 4 3 3 4 5 4 4 4 3 3 3 3 2 2 2 2 2 1 1 3 4 5 5 4 4
7 7 5 6 5 4 4 4 4 3 4 3 3 4 4 4 5 4 5 4 3 4 4 5 4 4 4 3 4 4 3 3 2 2 2 1 1 1 2 3 4 5 6 5
7 6 6 7 6 5 5 6 5 5 5 5 5 5 4 5 5 5 5 5 5 5 5 4 4 4 4 3 3 4 4 4 3 2 2 2 2 2 1 2 2 1 1 3
6 4 5 6 7 6 6 6 5 5 5 5 5 5 4 5 5 5 6 6 5 5 4 3 3 4 3 2 3 4 4 4 3 2 2 2 3 3 2 2 1 1 2 1
6 6 7 6 6 6 5 4 4 6 6 6 5 5 5 6 6 7 6 5 4 4 3 2 3 5 3 1 2 3 3 2 2 2 2 2 2 2 2 2 2 1 0 1
5 4 4 5 6 6 5 5 5 6 6 6 6 6 6 6 6 6 5 3 3 3 3 3 4 4 2 2 2 2 2 4 3 2 2 1 1 2 2 2 2 2 2 1
3 4 4 5 5 6 5 6 6 7 6 6 7 7 5 4 4 4 4 3 3 3 3 3 3 2 1 1 2 2 1 1 1 1 1 2 2 2 2 2 2 2 1 2
5 6 6 6 6 6 6 6 6 6 6 6 5 4 3 3 4 4 4 2 1 2 2 3 2 1 1 1 1 1 1 1 1 1 1 1 1 1 2 2 2 2 1 1
4 5 5 5 5 5 5 6 6 5 4 3 3 3 3 3 3 3 2 1 1 2 3 3 2 1 1 1 1 1 1 1 0 1 1 1 1 1 1 1 1 2 1 1
4 4 4 4 4 4 4 3 3 3 3 2 2 2 2 3 2 2 0 1 2 3 3 2 1 0 1 1 2 1 1 1 1 1 1 2 1 1 1 1 1 2 2 2
4 3 3 3 3 3 3 2 2 3 3 2 1 2 2 2 2 1 0 2 4 3 2 2 1 1 1 1 2 2 2 1 1 1 1 1 1 1 1 1 2 2 2 2
3 3 3 3 3 3 3 2 2 2 3 2 2 1 1 2 2 1 2 3 3 2 1 1 1 1 2 2 2 2 2 2 2 1 1 1 1 1 1 2 2 2 2 2
3 2 2 2 2 3 4 3 3 3 3 2 2 2 2 2 1 1 3 2 1 1 1 1 1 2 2 2 2 2 2 2 2 1 1 1 1 1 1 2 2 2 2 2
3 3 3 3 2 3 4 4 4 3 3 3 2 2 2 2 2 2 2 2 2 1 1 1 1 1 1 1 2 2 2 1 1 1 1 1 1 1 1 1 1 1 2 2
3 3 3 3 3 2 3 3 3 3 3 2 3 3 2 1 1 2 1 1 0 0 0 1 0 0 1 2 2 2 1 1 1 1 1 1 1 1 1 1 1 1 2 2
2 2 2 1 1 2 2 2 2 2 2 2 3 3 3 2 2 2 1 1 2 2 1 1 1 1 1 1 1 1 1 1 1 1 1 1 1 1 1 1 1 1 2 2
3 2 2 2 2 2 1 1 1 2 2 1 2 3 3 3 2 2 2 2 2 2 2 1 1 1 0 1 1 1 1 1 1 1 2 1 1 1 1 1 1 1 1 2
Wind_Direction
216 230 188 196 234 191 182 186 189 226 229 261 266 258 260 282 72 88 95 102 120 137 199 197 178 216 221 214 203 195 196 206 213 211 207 205 204 206 208 210 212 205 205 216
345 327 171 204 271 233 219 195 208 226 258 268 275 293 290 195 147 137 158 159 166 166 193 217 202 226 241 225 213 195 200 210 212 200 198 202 205 204 201 207 208 200 204 211
229 305 52 277 246 219 216 221 187 216 246 290 300 259 226 211 177 180 190 203 215 216 218 229 235 225 226 231 214 184 197 203 201 202 203 204 204 198 203 208 206 209 213 211
140 100 215 239 267 158 150 294 275 251 274 262 257 275 272 221 182 229 219 220 233 238 246 247 246 257 266 120 160 192 207 209 205 199 202 199 200 207 209 204 206 214 216 214
127 173 260 290 280 167 174 280 298 278 305 336 9 37 351 295 233 225 226 223 225 225 224 220 201 183 142 43 21 222 229 227 216 206 208 208 210 214 211 205 209 210 210 207
128 157 220 243 287 298 122 273 302 292 281 340 33 52 277 301 303 288 285 265 246 244 170 174 218 161 135 189 228 236 238 236 222 209 211 215 218 218 208 199 203 202 215 211
150 195 252 263 295 29 169 244 277 245 240 226 215 227 261 299 308 308 305 285 243 192 208 232 215 157 169 207 234 248 256 254 237 218 222 223 218 209 200 192 192 198 211 215
145 181 251 294 29 162 219 252 246 251 264 266 275 291 300 305 305 318 323 317 296 261 278 269 198 168 204 229 234 232 222 225 243 241 236 223 208 210 193 178 189 207 213 227
186 211 248 273 236 251 208 232 264 241 272 267 285 295 305 309 307 306 305 308 303 260 271 278 239 199 219 238 216 186 195 229 246 246 236 210 195 201 194 185 194 214 215 224
256 269 274 287 290 293 250 233 257 258 267 265 273 279 289 297 300 302 304 299 292 270 263 269 259 235 226 228 199 180 199 223 229 223 234 221 202 204 200 206 209 212 217 221
261 276 306 302 277 267 280 282 286 293 273 252 251 277 276 281 284 285 288 289 283 267 260 262 258 250 241 219 184 193 214 221 231 228 223 226 222 231 231 229 216 209 213 204
230 231 219 254 266 268 268 269 263 267 282 276 245 251 266 269 269 273 274 274 274 274 270 272 268 263 257 230 196 194 215 223 217 221 233 227 218 310 305 256 247 226 223 214
233 237 230 253 268 264 257 258 258 253 247 259 267 257 254 261 268 266 266 263 257 257 257 262 267 268 268 244 212 205 212 219 214 211 215 221 215 208 272 336 10 355 246 215
239 239 256 255 259 267 263 262 266 266 259 251 256 264 262 263 269 269 265 262 261 257 255 250 249 261 267 239 219 217 215 221 221 223 222 217 222 216 212 217 239 350 2 69
259 237 236 254 268 273 271 270 272 274 272 274 269 267 263 260 262 264 266 266 262 258 263 261 253 261 264 213 215 224 220 214 214 220 226 230 225 209 204 210 200 183 137 61
276 276 258 258 265 270 270 267 264 267 270 272 274 270 265 259 262 270 273 261 237 243 243 238 246 256 248 199 191 217 228 231 227 211 218 221 212 193 181 181 181 178 183 174
270 283 279 277 274 273 265 261 257 258 263 264 266 268 268 266 270 274 276 266 244 249 251 242 255 271 262 207 187 208 224 233 230 221 209 198 200 199 185 172 176 187 203 192
245 246 248 249 257 267 268 264 262 262 261 265 272 274 268 258 260 266 269 265 268 291 284 264 255 242 212 210 185 186 198 202 173 170 185 188 190 178 181 172 178 190 194 152
285 273 268 260 253 251 260 267 268 268 272 276 275 273 270 266 263 267 274 274 258 275 283 278 274 258 242 199 156 150 158 147 121 132 145 151 162 167 167 174 184 186 180 174
303 297 293 286 276 265 266 274 281 284 284 277 269 275 282 286 280 272 291 282 263 253 260 271 261 199 171 138 135 139 147 159 164 174 147 141 154 168 185 200 197 187 188 194
313 314 315 318 318 316 301 291 287 294 304 306 274 259 265 283 285 263 248 285 287 269 260 258 226 191 155 143 132 134 145 159 156 163 153 142 156 202 211 208 202 195 193 194
330 329 333 341 343 335 323 320 318 316 322 325 320 294 292 301 299 287 255 249 274 280 270 262 227 165 151 136 129 139 152 157 153 147 140 151 179 207 219 218 213 208 204 204
332 333 332 331 324 323 334 342 343 335 327 318 309 296 281 280 273 259 284 282 274 265 226 217 198 177 164 145 149 157 157 157 153 153 161 182 196 205 215 218 211 199 193 201
339 338 331 332 358 5 349 339 344 343 335 328 320 309 297 303 306 273 251 276 276 244 216 223 209 192 172 149 147 148 149 152 149 148 161 163 164 195 211 207 211 216 209 207
339 335 338 350 358 338 321 331 348 351 351 351 343 338 326 291 278 300 311 305 281 129 59 22 345 190 147 139 144 150 158 164 167 175 179 169 177 201 213 223 221 225 224 222
335 329 325 314 296 297 309 324 327 322 336 350 346 343 346 347 341 338 354 20 40 53 55 33 32 56 102 115 128 144 172 179 171 182 188 184 186 190 204 228 234 238 243 242
343 341 344 346 335 323 318 323 323 324 325 335 341 339 346 356 6 20 27 22 24 31 30 21 22 37 65 109 141 162 184 188 188 193 197 199 197 200 213 231 246 251 249 248